Location: Samoth
(37.3328°N, 88.7876°W)
Time: 11:57:19
(UTC+00:00)

COSMO-SKYMED 1 - Pass Details

Date: 29 October 2020
Orbit: 621 x 623 km, 97.9° (Epoch: 04 December)

Event Time Altitude Azimuth Distance (km) Brightness Sun altitude
Rises 23:32:36 0° 19° (NNE) 2,909 5.7 -7.1°
Reaches altitude 10° 23:34:53 10° 26° (NNE) 1,998 4.8 -7.6°
Maximum altitude 23:39:02 44° 99° (E) 868 2.9 -8.4°
Drops below altitude 10° 23:43:10 10° 172° (S) 1,982 5.2 -9.2°
Sets 23:45:25 0° 178° (S) 2,884 6.1 -9.6°
